This is the latest recevied weather packets stored in our database for station/object KC1BRV. If no packets are shown the sender has not sent any weather packets the latest 10 day(s).
| Time | Temp. | Humidity | Pressure | Rain* | Wind** | Luminosity | Snow |
|---|---|---|---|---|---|---|---|
| 1777851058 | 10.56° C | 41% | 1010.4 hPa | 0 mm | - | 7 W/m² | - |
| 1777850755 | 10.56° C | 40% | 1010 hPa | 0 mm | - | 9 W/m² | - |
| 1777850453 | 10.56° C | 39% | 1010.3 hPa | 0 mm | - | 11 W/m² | - |
| 1777850151 | 10.56° C | 40% | 1009.9 hPa | 0 mm | - | 13 W/m² | - |
| 1777849847 | 10.56° C | 39% | 1009.9 hPa | 0 mm | - | 14 W/m² | - |
| 1777849544 | 11.11° C | 38% | 1010 hPa | 0 mm | - | 16 W/m² | - |
| 1777849241 | 11.11° C | 41% | 1009.9 hPa | 0 mm | - | 20 W/m² | - |
| 1777848938 | 11.11° C | 39% | 1009.9 hPa | 0 mm | - | 26 W/m² | - |
| 1777848633 | 11.11° C | 39% | 1009.7 hPa | 0 mm | - | 24 W/m² | - |
| 1777848331 | 11.11° C | 38% | 1009.7 hPa | 0 mm | - | 26 W/m² | - |
| 1777848029 | 11.11° C | 37% | 1009.5 hPa | 0 mm | - | 28 W/m² | - |
| 1777847727 | 11.11° C | 39% | 1009.6 hPa | 0 mm | - | 36 W/m² | - |
| 1777847422 | 11.11° C | 38% | 1009.4 hPa | 0 mm | - | 30 W/m² | - |
| 1777847120 | 11.67° C | 36% | 1009.2 hPa | 0 mm | - | 30 W/m² | - |
| 1777846818 | 11.67° C | 37% | 1009.2 hPa | 0 mm | - | 53 W/m² | - |
| 1777846516 | 11.67° C | 36% | 1009.2 hPa | 0 mm | - | 85 W/m² | - |
| 1777846213 | 11.67° C | 38% | 1009.2 hPa | 0 mm | - | 86 W/m² | - |
| 1777845909 | 11.67° C | 37% | 1009.4 hPa | 0 mm | - | 60 W/m² | - |
| 1777845606 | 11.67° C | 38% | 1009.2 hPa | 0 mm | - | 105 W/m² | - |
| 1777845303 | 11.67° C | 38% | 1009.2 hPa | 0 mm | - | 83 W/m² | - |
| 1777845000 | 11.67° C | 37% | 1009.1 hPa | 0 mm | - | 92 W/m² | - |
| 1777844699 | 11.67° C | 37% | 1009 hPa | 0 mm | - | 88 W/m² | - |
| 1777844395 | 11.67° C | 39% | 1008.8 hPa | 0 mm | - | 95 W/m² | - |
| 1777844094 | 11.67° C | 38% | 1008.9 hPa | 0 mm | - | 100 W/m² | - |
| 1777843789 | 11.67° C | 38% | 1008.7 hPa | 0 mm | - | 103 W/m² | - |
* Rain latest hour (hover to see other rain measurements)
** Current wind speed in m/s (hover to see current wind gust speed)